Regional Weather Roundup
Issued by NWS Green Bay, WI

Home | Current Version | Previous Version | Graphics & Text | Print | Product List | Glossary Off
Versions: 1 2 3 4 5 6 7 8 9 10 11 12 13 14 15 16 17 18 19 20 21 22 23 24 25 26 27 28 29 30 31 32 33 34 35 36 37 38 39 40 41 42 43 44 45 46 47 48 49 50

000
ASUS43 KGRB 310211
RWRGRB

NORTH-CENTRAL AND NORTHEAST WISCONSIN REGIONAL WEATHER ROUNDUP
NATIONAL WEATHER SERVICE GREEN BAY WI
900 PM CDT SUN AUG 30 2015

WIZ005-009-010>012-018-019-310300-
NORTH CENTRAL WISCONSIN

CITY           SKY/WX    TMP DP  RH WIND       PRES   REMARKS
IRONWOOD       CLEAR     72  64  78 SW13      29.89R
MANITOWISH WTR CLEAR     65  65  97 S5        29.97R
ARBOR VITAE    CLEAR     67  64  91 S7        29.98S
EAGLE RIVER    CLEAR     67  60  80 SW3       29.97R
LAND O LAKES   CLEAR     68  63  83 SW5       29.98R
RHINELANDER    CLEAR     67  62  84 SW6       30.00R
PHILLIPS       CLEAR     66  63  90 SW5       29.97R
ANTIGO         CLEAR     63  62  96 SW6       30.00S
TOMAHAWK       CLEAR     63  61  94 CALM      30.00R
MERRILL        CLEAR     66  64  96 CALM      30.00R
$$

WIZ013-073-310300-
NORTHEAST WISCONSIN

CITY           SKY/WX    TMP DP  RH WIND       PRES   REMARKS
IRON MOUNTAIN  CLEAR     66  63  90 S6        29.94R
MARINETTE      CLEAR     66  61  82 SW8       29.96R
OCONTO         CLEAR     66  66 100 S3        29.97R
$$

WIZ017-030-035>037-045-310300-
CENTRAL WISCONSIN

CITY           SKY/WX    TMP DP  RH WIND       PRES   REMARKS
MEDFORD        CLEAR     64  63  94 S7        30.00R
WAUSAU         CLEAR     68  64  87 SW7       29.98R
MOSINEE        NOT AVBL
MARSHFIELD     CLEAR     66  61  84 SW3       30.01R
WISC RAPIDS    CLEAR     65  62  90 SW3       30.02R
STEVENS POINT  CLEAR     65  63  90 SW6       30.01R
WAUPACA        CLEAR     67  66  96 S3        30.00R
SHAWANO        CLEAR     68  64  88 CALM      29.98S
CLINTONVILLE   CLEAR     64  63  94 S3        29.99R
WAUTOMA        CLEAR     65  65 100 CALM      30.01R
$$

WIZ038-039-048-051-310300-
FOX VALLEY

CITY           SKY/WX    TMP DP  RH WIND       PRES   REMARKS
NWS GREEN BAY  CLEAR     67  63  87 S6        29.99R
APPLETON       CLEAR     64  63  94 S6        29.99R
OSHKOSH        CLEAR     63  61  93 S6        30.00S
FOND DU LAC    CLEAR     63  62  97 S5        30.02R
$$

WIZ022-050-052-310300-
EAST CENTRAL WISCONSIN

CITY           SKY/WX    TMP DP  RH WIND       PRES   REMARKS
EPHRAIM        FAIR      62  60  94 S3        29.96S
STURGEON BAY   CLEAR     63  57  82 S6        30.01R
MANITOWOC      CLEAR     61  59  93 MISG      30.02R
SHEBOYGAN      CLEAR     61  60  97 S5        30.02R
$$

LMZ563-521-522-541>543-310300-
LAKESHORE

STATION/POSITION TIME  TEMP    WIND        PRES    VSBY  WAVE
                       AIR SEA DIR/SP/G                  HT/PER
                 (UTC) (F)     (DEG/KT/KT) (MB)    (MI)  (FT/S)
SHEBOYGAN LKSHOR 0200   62     190/  9/  9 1017.0R
NORTHPORT PIER   0200   63     150/  4/  7 1014.6R
N MID LAKE BUOY  0150   64 65  210/ 17/ 21 1014.2R         2/ 4
S GREEN BAY BUOY 0200   66 63  190/  8/ 10 1016.5R
CHAMBERS ISLAND  0100   68     180/  8/ 13 1014.2R
$$


USA.gov is the U.S. government's official web portal to all federal, state and local government web resources and services.